James Reserve, California Weather observations

Data are for 10 minute period ending at time listed.
 Day   Time   Solar   Ave.   Ave.  Ave.  Vector  Max.   Baro.   Total    
  of    of     Rad.   Air    Rel.  Wind   Wind   Wind  Press.  Precip.   
Year   Day            Temp.  Hum.  Speed  Dir.   Gust                    
2015   (PST)  Kw/m2    F      %     mph   deg.    mph    mb.     in.     
-------------------------------------------------------------------------
 214   17:50   0.02   70.9    59    0.3   268     0.9   838.0    0.00 
 214   18:00   0.01   69.8    62    0.2   342     0.6   838.0    0.00 
 214   18:10   0.01   69.1    65    0.2   304     0.6   838.0    0.00 
 214   18:20   0.01   68.2    65    0.2   349     0.6   838.0    0.00 
 214   18:30   0.00   67.3    67    0.2   344     0.6   838.0    0.00 
 214   18:40   0.00   66.6    68    0.3     1     0.5   838.0    0.00 
 214   18:50   0.00   65.9    69    0.4   359     0.8   838.0    0.00 
 214   19:00   0.00   65.2    70    0.3    23     0.9   838.0    0.00 
 214   19:10   0.00   64.5    69    0.4    16     0.7   838.0    0.00 
 214   19:20   0.00   63.6    63    0.5    29     1.1   838.0    0.00 
 214   19:30   0.00   62.4    58    0.3     5     0.6   838.0    0.00 
 214   19:40   0.00   61.4    54    0.3   350     0.6   838.0    0.00 
 214   19:50   0.00   60.4    54    0.4   360     0.7   838.0    0.00 
 214   20:00   0.00   59.7    54    0.4     5     0.7   838.0    0.00 
 214   20:10   0.00   59.3    53    0.4    12     1.0   838.0    0.00 
 214   20:20   0.00   58.8    52    0.3    17     0.9   838.0    0.00 
 214   20:30   0.00   58.5    52    0.3    18     0.6   838.0    0.00 
 214   20:40   0.00   58.3    51    0.4    12     0.7   838.0    0.00 
 214   20:50   0.00   58.1    50    0.3    18     0.6   838.0    0.00 
 214   21:00   0.00   57.8    50    0.4    33     0.7   838.0    0.00 
 214   21:10   0.00   57.7    50    0.4    30     0.6   838.0    0.00 
 214   21:20   0.00   57.5    50    0.3    29     0.6   838.0    0.00 
 214   21:30   0.00   57.4    50    0.3    31     0.6   838.0    0.00 
 214   21:40   0.00   57.5    50    0.3    27     0.5   838.0    0.00 
 214   21:50   0.00   57.3    50    0.4    31     0.6   838.0    0.00 
 214   22:00   0.00   57.1    51    0.4    27     0.7   838.0    0.00 
 214   22:10   0.00   57.2    51    0.4    24     0.8   99999.0    0.00 
 214   22:20   0.00   57.1    50    0.3    27     0.6   838.0    0.00 
 214   22:30   0.00   56.9    51    0.3    19     0.8   838.0    0.00 
 214   22:40   0.00   56.8    51    0.3    18     0.6   838.0    0.00 
 214   22:50   0.00   56.5    52    0.3    21     0.6   838.0    0.00 
 214   23:00   0.00   56.3    52    0.3    10     0.7   838.0    0.00 
 214   23:10   0.00   56.2    52    0.3    25     0.6   838.0    0.00 
 214   23:20   0.00   56.0    53    0.4    25     0.7   838.0    0.00 
 214   23:30   0.00   55.8    52    0.4    29     0.9   838.0    0.00 
 214   23:40   0.00   55.9    52    0.4    40     0.7   838.0    0.00 
 214   23:50   0.00   56.1    51    0.3    23     0.6   838.0    0.00 
 215    0:00   0.00   56.1    50    0.3    25     0.6   838.0    0.00 
 215    0:10   0.00   56.0    51    0.4    35     0.7   838.0    0.00 
 215    0:20   0.00   55.8    50    0.3    30     0.6   838.0    0.00 
 215    0:30   0.00   55.8    50    0.5    36     1.0   838.0    0.00 
 215    0:40   0.00   55.9    50    0.4    27     0.6   838.0    0.00 
 215    0:50   0.00   55.7    49    0.5    38     0.8   838.0    0.00 
 215    1:00   0.00   55.5    50    0.5    35     1.1   838.0    0.00 
 215    1:10   0.00   55.5    50    0.5    34     0.8   838.0    0.00 
 215    1:20   0.00   55.5    50    0.6    38     0.9   838.0    0.00 
 215    1:30   0.00   55.6    50    0.4    25     0.9   838.0    0.00 
 215    1:40   0.00   55.5    48    0.5    32     0.9   838.0    0.00 
 215    1:50   0.00   55.3    48    0.5    36     0.7   838.0    0.00 
 215    2:00   0.00   55.2    48    0.5    33     0.8   838.0    0.00 
 215    2:10   0.00   55.3    48    0.5    37     0.9   838.0    0.00 
 215    2:20   0.00   55.4    48    0.5    32     0.9   838.0    0.00 
 215    2:30   0.00   55.2    48    0.4    32     0.7   838.0    0.00 
 215    2:40   0.00   55.2    48    0.4    34     0.7   838.0    0.00 
 215    2:50   0.00   55.2    48    0.5    37     0.8   838.0    0.00 
 215    3:00   0.00   55.1    47    0.5    38     0.8   838.0    0.00 
 215    3:10   0.00   54.9    48    0.4    32     0.8   838.0    0.00 
 215    3:20   0.00   54.8    48    0.4    36     0.6   838.0    0.00 
 215    3:30   0.00   54.8    48    0.4    34     0.7   838.0    0.00 
 215    3:40   0.00   54.8    48    0.4    31     0.8   838.0    0.00 
 215    3:50   0.00   54.6    48    0.4    31     0.8   838.0    0.00 
 215    4:00   0.00   54.5    49    0.4    23     1.0   838.0    0.00 
 215    4:10   0.00   54.3    49    0.4    27     0.7   838.0    0.00 
 215    4:20   0.00   54.2    49    0.4    30     0.7   838.0    0.00 
 215    4:30   0.00   54.3    49    0.4    28     0.7   838.0    0.00 
 215    4:40   0.00   54.2    49    0.4    33     0.7   838.0    0.00 
 215    4:50   0.00   54.6    49    0.4    33     0.9   838.0    0.00 
 215    5:00   0.00   54.7    49    0.4    36     0.8   838.0    0.00 
 215    5:10   0.00   54.8    50    0.4    34     0.8   838.0    0.00 
 215    5:20   0.00   54.9    51    0.4    38     0.7   838.0    0.00 
 215    5:30   0.01   54.9    52    0.4    37     0.7   838.0    0.00 
 215    5:40   0.01   54.9    53    0.4    33     0.6   838.0    0.00 
 215    5:50   0.01   54.9    55    0.4    34     0.7   838.0    0.00 
 215    6:00   0.01   55.1    57    0.5    34     0.7   838.0    0.00 
 215    6:10   0.01   55.4    58    0.4    32     0.9   838.0    0.00 
 215    6:20   0.02   55.7    59    0.6    44     0.9   839.0    0.00 
 215    6:30   0.02   56.0    60    0.7    44     1.0   839.0    0.00 
 215    6:40   0.03   56.4    61    0.7    46     1.0   839.0    0.00 
 215    6:50   0.06   57.1    60    0.7    49     0.9   839.0    0.00 
 215    7:00   0.03   57.9    59    0.7    50     1.2   839.0    0.00 
 215    7:10   0.03   58.5    57    0.6    52     1.3   839.0    0.00 
 215    7:20   0.06   59.3    55    0.7    51     1.2   839.0    0.00 
 215    7:30   0.08   60.1    54    0.6    49     1.3   839.0    0.00 
 215    7:40   0.05   61.1    53    0.7    48     1.5   839.0    0.00 
 215    7:50   0.07   62.2    51    0.6    44     1.3   839.0    0.00 
 215    8:00   0.59   63.6    47    0.6    53     1.2   839.0    0.00 
 215    8:10   0.63   65.7    45    0.6    35     1.4   839.0    0.00 
 215    8:20   0.66   68.6    41    0.5    98     1.5   839.0    0.00 
 215    8:30   0.69   72.2    35    0.5    56     1.3   839.0    0.00 
 215    8:40   0.73   75.2    25    0.8   201     3.7   839.0    0.00 
 215    8:50   0.76   77.1    16    1.0   170     4.6   839.0    0.00 
 215    9:00   0.79   77.7    17    0.8   189     2.5   839.0    0.00 
 215    9:10   0.83   78.2    16    0.9   161     3.0   839.0    0.00 
 215    9:20   0.86   78.8    17    0.7    88     2.5   839.0    0.00 
 215    9:30   0.89   78.6    15    1.2   183     5.2   839.0    0.00 
 215    9:40   0.92   79.2    18    0.8   255     1.9   839.0    0.00 
 215    9:50   0.94   79.4    19    0.8   226     1.8   839.0    0.00 
 215   10:00   0.96   80.4    20    1.0   253     3.1   839.0    0.00 
 215   10:10   0.97   80.2    22    0.9   212     2.3   839.0    0.00 
 215   10:20   0.99   79.1    23    1.0   220     2.9   839.0    0.00 
 215   10:30   1.01   78.4    27    0.8   184     1.9   839.0    0.00 
 215   10:40   1.03   78.2    32    1.0   190     2.2   839.0    0.00 
 215   10:50   1.04   77.4    35    0.8   170     2.0   839.0    0.00 
 215   11:00   1.05   76.8    34    0.9   228     1.9   839.0    0.00 
 215   11:10   1.06   76.8    35    0.9   242     1.9   839.0    0.00 
 215   11:20   1.08   78.2    35    1.0   227     2.5   839.0    0.00 
 215   11:30   1.08   78.3    35    0.8   218     1.8   839.0    0.00 
 215   11:40   0.94   77.6    35    0.8   231     2.0   839.0    0.00 
 215   11:50   1.10   77.9    35    0.9   224     2.5   839.0    0.00 
 215   12:00   1.09   77.8    34    0.8   231     2.2   839.0    0.00 
 215   12:10   1.09   78.3    33    0.9   232     2.6   839.0    0.00 
 215   12:20   1.08   78.3    33    0.9   220     2.1   839.0    0.00 
 215   12:30   1.00   78.6    31    0.9   227     2.5   839.0    0.00 
 215   12:40   1.04   79.6    31    0.8   205     3.3   839.0    0.00 
 215   12:50   1.07   80.2    30    1.0   198     2.1   839.0    0.00 
 215   13:00   0.75   79.0    32    1.0   208     5.2   839.0    0.00 
 215   13:10   0.83   78.0    35    0.9   148     1.9   839.0    0.00 
 215   13:20   0.98   78.8    35    1.1   170     2.9   839.0    0.00 
 215   13:30   1.01   79.0    31    1.0   158     3.3   839.0    0.00 
 215   13:40   0.68   78.4    28    0.8   196     1.6   839.0    0.00 
 215   13:50   0.95   77.9    27    0.8   154     1.9   839.0    0.00 
 215   14:00   0.94   78.4    26    0.7   232     1.8   839.0    0.00 
 215   14:10   0.92   79.5    26    0.7   138     1.9   839.0    0.00 
 215   14:20   0.61   79.1    26    0.9   216     2.3   839.0    0.00 
 215   14:30   0.17   77.4    30    1.0   208     2.7   839.0    0.00 
 215   14:40   0.22   76.0    34    0.8   196     2.0   839.0    0.00 
 215   14:50   0.22   75.6    34    0.7   132     2.0   839.0    0.00 
 215   15:00   0.21   75.5    33    0.7   116     2.0   839.0    0.00 
 215   15:10   0.12   76.3    33    0.8   190     1.8   839.0    0.00 
 215   15:20   0.09   75.2    34    0.6   186     1.6   839.0    0.00 
 215   15:30   0.14   75.3    34    0.5   266     1.5   839.0    0.00 
 215   15:40   0.11   76.0    33    0.8   271     2.1   839.0    0.00 
 215   15:50   0.11   75.7    38    0.8   194     1.8   839.0    0.00 
 215   16:00   0.21   75.6    41    0.7   224     1.8   838.0    0.00 
 215   16:10   0.06   75.1    41    0.6   200     1.8   838.0    0.00 
 215   16:20   0.04   75.1    44    0.9   171     2.1   838.0    0.00 
 215   16:30   0.03   74.6    45    0.7   192     1.7   838.0    0.00 
 215   16:40   0.03   74.0    47    0.6   219     2.1   838.0    0.00 
 215   16:50   0.03   73.7    48    0.6   149     1.5   838.0    0.00 
 215   17:00   0.03   73.3    49    0.6   204     1.9   838.0    0.00 
 215   17:10   0.02   72.6    49    0.6   270     1.7   838.0    0.00 
 215   17:20   0.02   71.7    52    0.5   204     1.3   838.0    0.00 
 215   17:30   0.02   71.0    53    0.3   296     0.8   838.0    0.00 
 215   17:40   0.02   70.2    55    0.3   261     0.8   838.0    0.00 

Return to James Reserve graphs page.


Western Regional Climate Center,wrcc@dri.edu